Weather History for KTOI - November, 2012

Change the Weather History Date:

Thursday, November 15, 2012

  Actual Average Record
Temperature  
Mean Temperature 46 °F 56 °F  
Max Temperature 52 °F 69 °F 78 °F (2005)
Min Temperature 40 °F 43 °F 24 °F (2014)
Degree Days  
Heating Degree Days 19 9  
Month to date heating degree days 159 117  
Since 1 July heating degree days 250 215  
Moisture  
Dew Point 43 °F    
Average Humidity 86    
Maximum Humidity 100    
Minimum Humidity 71    
Precipitation  
Precipitation 0.00 in 0.16 in 2.76 in (2010)
Month to date precipitation 0.93 1.96  
Year to date precipitation 50.96 47.10  
Snow  
Snow 0.00 in - - ()
Month to date snowfall 0.0  
Since 1 July snowfall 0.0  
Since 1 September snowfall 0.0  
Snow Depth 0.00 in    
Sea Level Pressure  
Sea Level Pressure 30.26 in    
Wind  
Wind Speed 5 mph (NE)    
Max Wind Speed 10 mph    
Max Gust Speed 16 mph    
Visibility 10 miles    
Events      
T = Trace of Precipitation, MM = Missing Value Source: NWS Daily Summary

Daily Weather History Graph

Daily Weather History Graph

Search for Another Location

Airport or City:

Trip Planner

Search our weather history database for the weather conditions in past years. The results will help you decide how hot, cold, wet, or windy it might be!

Date:

Astronomy

Nov. 15, 2012 Rise Set
Actual Time 6:12 AM CST 4:44 PM CST
Civil Twilight 5:47 AM CST 5:10 PM CST
Nautical Twilight 5:17 AM CST 5:39 PM CST
Astronomical Twilight 4:48 AM CST 6:08 PM CST
Moon 8:03 AM CST (11/15) 6:39 PM CST (11/15)
Length of Visible Light 11h 23m
Length of Day
10h 31m
Waxing Crescent, 5% of the Moon is Illuminated
Nov 15
Waxing Crescent
Nov 20
First Quarter
Nov 28
Full
Dec 6
Last Quarter
Dec 13
New

Hourly Weather History & Observations

Time (CST) Temp. Windchill Dew Point Humidity Pressure Visibility Wind Dir Wind Speed Gust Speed Precip Events Conditions
12:53 AM 48.0 °F - 44.1 °F 86% 30.24 in 10.0 mi ENE 3.5 mph - N/A   Overcast
1:53 AM 48.0 °F - 43.0 °F 83% 30.23 in 10.0 mi NNE 5.8 mph - N/A   Overcast
2:53 AM 48.0 °F - 43.0 °F 83% 30.23 in 10.0 mi NE 4.6 mph - N/A   Overcast
3:53 AM 48.0 °F - 43.0 °F 83% 30.23 in 10.0 mi NNE 4.6 mph - N/A   Overcast
4:53 AM 48.0 °F - 43.0 °F 83% 30.24 in 10.0 mi NNE 5.8 mph - N/A   Overcast
5:33 AM 46.4 °F 43.5 °F 42.8 °F 87% 30.25 in 10.0 mi NNE 5.8 mph - N/A   Overcast
5:53 AM 46.9 °F - 43.0 °F 86% 30.25 in 10.0 mi NNE 5.8 mph - N/A   Overcast
6:53 AM 46.9 °F - 43.0 °F 86% 30.26 in 10.0 mi NE 8.1 mph - N/A   Overcast
7:51 AM 46.4 °F 42.4 °F 44.6 °F 93% 30.27 in 8.0 mi NNE 8.1 mph - N/A   Overcast
7:53 AM 46.9 °F - 44.1 °F 90% 30.27 in 8.0 mi NNE 8.1 mph - N/A   Overcast
8:53 AM 48.0 °F - 44.1 °F 86% 30.30 in 6.0 mi NE 6.9 mph - N/A   Overcast
9:53 AM 48.0 °F - 44.1 °F 86% 30.30 in 6.0 mi ENE 8.1 mph - N/A   Overcast
10:14 AM 48.2 °F - 44.6 °F 87% 30.29 in 6.0 mi NE 8.1 mph - N/A   Haze
10:34 AM 50.0 °F - 44.6 °F 82% 30.28 in 10.0 mi NE 8.1 mph - N/A   Overcast
10:53 AM 50.0 °F - 44.1 °F 80% 30.28 in 10.0 mi ENE 5.8 mph - N/A   Overcast
11:37 AM 51.8 °F - 42.8 °F 71% 30.27 in 10.0 mi NNE 9.2 mph - N/A   Overcast
11:53 AM 51.1 °F - 43.0 °F 74% 30.26 in 10.0 mi NE 8.1 mph - N/A   Overcast
12:53 PM 51.1 °F - 43.0 °F 74% 30.24 in 10.0 mi North 8.1 mph - N/A   Overcast
1:53 PM 52.0 °F - 43.0 °F 71% 30.24 in 10.0 mi NNE 9.2 mph - N/A   Overcast
2:53 PM 51.1 °F - 43.0 °F 74% 30.24 in 10.0 mi NE 4.6 mph - N/A   Overcast
3:53 PM 51.1 °F - 42.1 °F 71% 30.24 in 10.0 mi NNE 9.2 mph - N/A   Overcast
4:53 PM 50.0 °F - 42.1 °F 74% 30.24 in 10.0 mi NNE 6.9 mph - N/A   Overcast
5:53 PM 50.0 °F - 42.1 °F 74% 30.25 in 10.0 mi Calm Calm - N/A   Overcast
6:53 PM 48.9 °F - 43.0 °F 80% 30.25 in 10.0 mi Calm Calm - N/A   Mostly Cloudy
7:11 PM 46.4 °F - 42.8 °F 87% 30.25 in 10.0 mi Calm Calm - N/A   Partly Cloudy
7:32 PM 46.4 °F - 42.8 °F 87% 30.26 in 10.0 mi Calm Calm - N/A   Mostly Cloudy
7:53 PM 46.0 °F - 43.0 °F 89% 30.26 in 10.0 mi Calm Calm - N/A   Overcast
8:14 PM 44.6 °F - 42.8 °F 93% 30.26 in 10.0 mi Calm Calm - N/A   Scattered Clouds
8:53 PM 43.0 °F - 41.0 °F 93% 30.27 in 10.0 mi Calm Calm - N/A   Clear
9:53 PM 42.1 °F - 39.9 °F 92% 30.25 in 10.0 mi Calm Calm - N/A   Clear
10:53 PM 39.9 °F - 39.0 °F 97% 30.26 in 10.0 mi Calm Calm - N/A   Clear
11:53 PM 41.0 °F - 39.0 °F 93% 30.26 in 10.0 mi Calm Calm - N/A   Partly Cloudy